Location: Demmingen
(48.6757°N, 10.4375°E)
Time: 20:34:40
(UTC+00:00)

SL-16 R/B - Pass Details

Date: 17 August 2024
Orbit: 842 x 845 km, 71.0° (Epoch: 10 September)

Event Time Altitude Azimuth Distance (km) Brightness Sun altitude
Exits shadow 00:57:44 - 282° (WNW) 3,169 5.1 -24.5°
Reaches altitude 10° 01:01:01 10° 307° (NW) 2,473 4.7 -24.3°
Maximum altitude 01:03:21 12° 331° (NNW) 2,302 4.9 -24.1°
Drops below altitude 10° 01:05:41 10° 356° (N) 2,477 5.4 -23.9°
Sets 01:09:51 0° 25° (NNE) 3,416 6.8 -23.6°
